Location: Utrecht
(52.0917°N, 5.1178°E)
Time: 02:36:59
(UTC+02:00)

X-37B - Pass Details

Date: 29 June 2021
Orbit: 383 x 392 km, 45.0° (Epoch: 01 July)

Event Time Altitude Azimuth Distance (km) Brightness Sun altitude
Rises 23:05:04 0° 255° (WSW) 2,258 4.8 -7.2°
Reaches altitude 10° 23:07:25 10° 239° (WSW) 1,403 3.5 -7.4°
Maximum altitude 23:09:54 22° 187° (S) 909 2.0 -7.6°
Enters shadow 23:12:17 11° 136° (SE) 1,361 2.7 -7.8°
